La Nava - Corral De Ayllón Airport

Jump to: basic info | weather | comments

Related pages: nearby airports | nearby navaids | notams | map

Basic information (top)

Codes: LECA
Location: lon 41.410801, lat -3.448330, elev 3,280 ft / 1,000 m msl
Status: small_airport

Weather (top)

Current conditions for Torrejón Airport 55nm (102km) S (rec'd 2014/08/29 00:00Z):

LETO 290000Z 02007KT CAVOK 22/M01 Q1017 NOSIG

Airport forecast for Torrejón Airport 55nm (102km) S (rec'd 2014/08/28 00:28Z):

TAF LETO 282300Z 2900/2924 VRB03KT CAVOK TX34/2915Z TN18/2906Z

Latest comments (top)

No comments yet for La Nava - Corral De Ayllón Airport

More... (top)

See also NOTAMs and nearby airports and navaids, or visit the La Nava - Corral De Ayllón Airport page at the main OurAirports website..